Погода в Усть-Лэкчиме

Россия / Республика Коми     61°46′51″N   51°42′08″E
темп.,
°C
ветер,
м/с
пор.,
м/с
влажн.,
%
обл.,
%
осадки,
мм/ч
давл.,
гПа
погр.,
м
25 февраля, чт
чт2500:00−24ю229784 0.0 103120
03:00−25ю229879 0.0 103029
06:00−26ююв259818 0.0 1027103
09:00−22ююв38929 0.0 1026256
12:00−17ююв37850 0.0 1024392
15:00−15ююв48834 0.0 1023521
18:00−19ююв4119110 0.0 1021338
21:00−20ююв3109337 0.0 1021321
26 февраля, пт
пт2600:00−20ююв399398 0.0 1021317
03:00−21ююв399497 0.0 1020278
06:00−22ююв3893100 0.0 1019310
09:00−21ююв499398 0.0 1018347
12:00−17ююв498998 0.0 1017480
15:00−16ююв498999 0.1 1015578
18:00−18юв41293100 0.0 1013538
21:00−20юв41193100 0.0 1013487
27 февраля, сб
сб2700:00−20юв31194100 0.0 1011415
03:00−21вюв3109598 0.0 1011379
06:00−21вюв3109588 0.0 1010356
09:00−18вюв398986 0.0 1011454
12:00−13вюв378487 0.0 1010617
15:00−12в378582 0.0 1011559
18:00−17в239531 0.0 101128
21:00−18в239724 0.0 101328
28 февраля, вс
вс2800:00−20в23980 0.0 101332
03:00−22вюв22940 0.0 101521
06:00−24в12930 0.0 101620
09:00−19всв12860 0.0 1017155
12:00−14св12800 0.0 1017360
15:00−13с12846 0.0 1017328
18:00−19ссз01940 0.0 101820
21:00−20зюз12940 0.0 101920
1 марта, пн
пн100:00−20юз22950 0.0 101821
03:00−21юз25968 0.0 101797
06:00−19ююз399634 0.0 1015225
09:00−16ююз4109356 0.0 1012285
12:00−11ююз51192100 0.1 1008392
15:00−8юз61294100 1.3 1003637
18:00−8юз51394100 1.8 999625
21:00−5юз51392100 3.1 996560